Regional Weather Roundup
Issued by NWS

Home | Current Version | Previous Version | Text Only | Print | Product List | Glossary On
Versions: 1 2 3 4 5 6 7 8 9 10 11 12 13 14 15 16 17 18 19 20 21 22 23 24 25 26 27 28 29 30 31 32 33 34 35 36 37 38 39 40 41 42 43 44 45 46 47 48 49 50
000
ASUS45 KPSR 211010
RWRAZ

ARIZONA REGIONAL HOURLY WEATHER ROUNDUP
NATIONAL WEATHER SERVICE PHOENIX AZ
300 AM MST SUN DEC 21 2014

NOTE: FAIR INDICATES FEW OR NO CLOUDS BELOW 12,000 FEET WITH NO
SIGNIFICANT WEATHER AND/OR OBSTRUCTIONS TO VISIBILITY.

AZZ001>003-036-211100-
NORTHWEST ARIZONA

CITY           SKY/WX    TMP DP  RH WIND       PRES   REMARKS
BULLHEAD CITY  CLEAR     46  41  81 CALM      30.17R
KINGMAN        CLEAR     33  30  88 CALM      30.16S
$$

AZZ004>008-015-016-018-211100-
NORTH CENTRAL ARIZONA

CITY           SKY/WX    TMP DP  RH WIND       PRES   REMARKS
GRAND CANYON   PTCLDY    23  21  92 CALM      30.17R
PRESCOTT       PTCLDY    32  25  75 S6        30.15R WCI  26
FLAGSTAFF      CLEAR     27  22  81 SW8       30.14F WCI  19
PAYSON         PTCLDY    34  30  86 CALM      30.15R
PAGE           PTCLDY    35  28  75 SW5       30.13F WCI  31
$$

AZZ009>014-017-211100-
NORTHEAST ARIZONA

CITY           SKY/WX    TMP DP  RH WIND       PRES   REMARKS
WINSLOW        FOG       28  27  96 CALM      30.15R VSB 1/4
SAINT JOHNS    PTCLDY    29  25  85 S3        30.11F
WINDOW ROCK    CLEAR     33  24  69 W6        30.12R WCI  28
SHOW LOW       PTCLDY    32  23  69 S7        30.14F WCI  26
$$

AZZ023-211100-
GREATER PHOENIX AREA

CITY           SKY/WX    TMP DP  RH WIND       PRES   REMARKS
PHOENIX        PTCLDY    50  43  77 E6        30.09F
BUCKEYE          N/A     43  43 100 N5        30.10F
LUKE AFB       PTCLDY    46  44  94 NE2       30.09S
DEER VALLEY    PTCLDY    45  40  82 CALM      30.10S
SCOTTSDALE     PTCLDY    46  40  79 CALM      30.11F
MESA-GATEWAY   CLEAR     41  39  93 E6        30.12F
$$

AZZ027-028-211100-
SOUTHWEST MARICOPA COUNTY AND PINAL COUNTY

CITY           SKY/WX    TMP DP  RH WIND       PRES   REMARKS
CASA GRANDE    PTCLDY    43  39  87 CALM      30.11S
GILA BEND      FAIR      47  41  81 S6        30.12F
$$

AZZ503-504-507>509-211100-
SOUTHEAST ARIZONA

CITY           SKY/WX    TMP DP  RH WIND       PRES   REMARKS
TUCSON         PTCLDY    43  37  79 SE8       30.14S
DAVIS-MONTHAN  PTCLDY    41  37  86 SE6       30.11F
NOGALES        PTCLDY    36  29  75 E5        30.12R WCI  32
SIERRA VISTA   MOCLDY    39  27  62 W7        30.14R WCI  34
DOUGLAS        MOCLDY    30  24  78 N5        30.12R WCI  25
SAFFORD        CLOUDY    37  34  89 CALM      30.10F
$$

AZZ020-021-025-026-031-211100-
SOUTHWEST ARIZONA

CITY           SKY/WX    TMP DP  RH WIND       PRES   REMARKS
YUMA           MOCLDY   N/A N/A N/A NE3       30.11S
$$

CAZ031-033-041-043-047-048-061-211100-
SOUTHERN CALIFORNIA

CITY           SKY/WX    TMP DP  RH WIND       PRES   REMARKS
DOWNTOWN L.A.  MOCLDY    56  47  71 NE3       30.14S
L.A. AIRPORT   MOCLDY    55  48  77 E6        30.14S
SAN DIEGO      MOCLDY    60  52  74 NE5       30.15F
BURBANK        MOCLDY    51  46  83 CALM      30.13F
ONTARIO        PTCLDY    49  44  83 CALM      30.15F
RIVERSIDE      CLEAR     47  45  93 CALM      30.15F FOG
PALM SPRINGS   CLEAR     51  44  77 W5        30.15S
EL CENTRO NAS  PTCLDY    47  41  80 SW8       30.12R
IMPERIAL       MOCLDY    47  41  80 W7        30.11S
BLYTHE         PTCLDY    48  44  86 NW5       30.13S
NEEDLES        CLEAR     47  40  76 W5        30.15R
$$

NVZ020-UTZ003-211100-
SOUTHERN NEVADA-UTAH

CITY           SKY/WX    TMP DP  RH WIND       PRES   REMARKS
LAS VEGAS      PTCLDY    44  36  73 S8        30.12S
SALT LAKE CITY LGT RAIN  43  33  68 S10       30.01S
$$

NMZ009-TXZ055-211100-
NEW MEXICO-WEST TEXAS

CITY           SKY/WX    TMP DP  RH WIND       PRES   REMARKS
ALBUQUERQUE    PTCLDY    30  25  81 SE3       30.07F
EL PASO        MOCLDY    45  29  53 SW7       30.06R
$$


........................KEY........................
SKY/WX - SKY CONDITION/WEATHER
TMP    - TEMPERATURE IN FAHRENHEIT
DP     - DEW POINT IN FAHRENHEIT
RH     - RELATIVE HUMIDITY IN PERCENT
WIND   - DIRECTION AND SPEED IN MILES PER HOUR (MPH)
VRB    - VARIABLE WIND DIRECTION
PRES   - MEAN SEA LEVEL PRESSURE IN INCHES OF MERCURY
         F - FALLING PRESSURE   R - RISING PRESSURE
         S - STEADY PRESSURE
VSB    - VISIBILITY IN MILES
HX     - HEAT INDEX IN FAHRENHEIT
WCI    - WIND CHILL INDEX IN FAHRENHEIT
TC     - TEMPERATURE IN CELSIUS WHICH IS ALSO KNOWN AS
         TEMPERATURE IN CENTIGRADE
AFB    - AIR FORCE BASE
         LUKE AFB IS LUKE AIR FORCE BASE
         DAVIS-MONTHAN IS DAVIS-MONTHAN AIR FORCE BASE
NAS    - NAVAL AIR STATION
         EL CENTRO NAS IS EL CENTRO NAVAL AIR STATION
N/A    - NOT AVAILABLE



USA.gov is the U.S. government's official web portal to all federal, state and local government web resources and services.